Wind_Speed
30 33 34 33 32 33 34 33 32 31 29 28 29 30 32 33 34 34 35 35 38 42 46 52 59 67 75 83 89 94 99 103 105 105 105 106 107 107 106 106 105 103 101 100 99 98 96 90 84 84 85 85 86 88 88 86 85 84 82 81 80 79 79
30 32 33 32 33 34 33 31 30 29 28 27 27 28 29 30 31 32 32 33 34 36 39 43 49 56 63 72 80 86 92 98 102 103 104 104 106 107 106 106 105 104 103 102 101 101 100 98 93 88 86 86 84 84 85 86 86 85 82 81 81 80 78
29 31 32 32 33 32 29 28 27 28 28 27 26 26 27 28 29 30 30 30 31 32 34 37 41 46 52 61 69 76 83 90 96 100 102 103 104 106 106 106 106 105 104 103 103 102 102 103 102 99 97 96 94 91 91 92 91 90 86 83 81 80 80
29 30 31 31 30 28 25 25 26 27 28 26 25 25 26 27 28 28 28 28 29 30 31 33 35 39 44 50 58 65 73 80 88 94 99 101 101 103 105 106 106 106 105 105 104 103 102 103 105 105 106 106 104 101 99 98 97 95 93 89 86 83 81
30 30 30 29 27 26 26 27 27 27 26 25 24 24 25 26 27 27 27 27 27 28 29 31 33 35 39 43 48 54 61 68 77 85 93 97 99 100 101 104 106 106 106 106 105 104 102 101 102 104 106 108 107 105 103 101 99 99 98 95 92 88 84
28 29 28 27 27 27 28 28 27 26 25 24 22 22 24 25 26 26 27 27 27 27 28 30 32 35 38 40 43 46 50 57 65 74 83 90 95 97 98 100 103 105 106 106 106 106 104 102 100 99 100 102 103 103 103 101 100 100 99 97 93 89 85
27 27 27 27 28 28 27 26 25 24 24 23 22 21 22 24 25 26 27 27 27 27 29 31 33 36 37 38 39 41 44 49 55 63 71 79 87 92 95 97 100 103 105 106 107 107 107 106 105 102 99 96 96 97 98 98 97 97 97 96 92 88 85
25 26 26 27 26 25 23 23 23 23 23 23 21 21 22 23 25 26 27 27 27 29 31 33 34 36 37 37 38 40 41 44 49 54 61 68 76 83 89 94 96 99 102 104 107 108 108 108 108 109 106 102 98 95 93 92 92 93 94 95 93 90 87
24 25 25 24 24 23 22 22 23 23 23 22 21 20 21 22 24 25 26 27 28 30 32 33 35 37 37 37 38 38 40 42 45 49 53 58 65 72 80 87 92 95 98 101 104 107 108 109 110 111 111 110 106 100 95 91 90 90 91 93 94 93 91
22 23 22 23 23 22 22 22 22 23 22 22 21 20 21 22 23 23 24 25 27 29 30 32 34 36 37 36 36 36 37 39 42 45 47 51 55 62 69 77 84 90 94 98 101 104 106 108 109 110 111 112 111 108 104 100 96 93 92 93 93 94 94
20 21 22 22 22 22 21 21 22 23 22 22 21 20 20 21 22 22 23 24 26 27 29 30 32 34 35 35 35 34 34 34 36 39 42 45 48 53 59 66 73 81 87 92 96 100 102 105 107 108 109 110 111 111 110 108 106 103 101 98 96 95 95
18 20 21 21 21 21 21 21 22 22 23 22 21 21 20 21 22 23 24 24 25 26 28 29 30 31 32 33 33 33 32 31 31 33 35 39 42 46 51 56 62 68 75 82 89 93 97 100 102 105 106 108 109 109 109 108 109 109 108 106 104 101 99
16 17 19 20 20 20 20 20 21 22 22 22 22 21 21 21 22 23 25 25 26 27 28 28 29 29 30 31 32 32 32 31 30 30 31 33 35 38 42 46 51 57 63 70 78 84 89 93 97 100 102 104 105 106 107 106 105 105 106 107 107 105 104
14 15 17 18 19 20 20 21 21 22 22 22 22 22 22 22 23 24 25 26 27 27 28 29 29 29 29 30 31 31 32 32 31 31 31 31 30 31 33 38 43 48 53 59 66 73 79 85 89 93 97 100 102 103 104 104 102 101 101 101 102 102 101
12 14 16 17 19 20 21 22 22 22 22 22 23 23 22 23 23 24 25 26 28 29 29 29 30 29 29 29 30 30 31 31 32 32 32 31 30 29 29 31 35 40 45 50 55 61 68 73 79 83 87 91 96 99 100 101 100 99 98 97 98 98 96
9 11 13 15 16 18 19 20 20 21 22 22 23 23 23 23 24 24 25 26 27 29 29 30 30 30 30 29 29 30 31 31 31 31 31 31 30 29 28 28 29 33 38 43 46 51 56 62 69 75 76 77 84 90 94 96 97 97 96 95 94 95 93
6 7 9 10 12 13 15 16 17 19 20 22 23 23 23 23 23 25 26 26 26 27 28 29 29 30 30 30 30 31 31 32 32 31 31 30 29 29 29 28 27 29 32 36 41 45 50 55 64 72 70 65 69 77 82 86 89 90 92 91 90 89 88
5 6 6 7 8 9 10 12 14 15 17 19 20 22 23 23 23 23 25 26 25 24 24 26 27 28 30 31 31 32 32 32 32 32 31 30 30 29 28 28 28 28 29 31 35 40 45 52 61 70 69 61 60 65 69 72 75 79 83 86 87 86 84
8 8 8 7 8 8 9 9 10 11 12 14 16 18 19 20 20 21 23 24 24 24 24 25 27 28 29 30 31 32 32 32 32 32 31 31 31 29 28 28 29 29 28 29 31 35 40 47 57 68 71 63 58 58 61 65 69 71 75 79 82 84 83
10 10 9 9 9 9 9 10 11 11 11 11 12 14 15 16 17 18 20 22 23 24 25 26 27 27 28 28 29 30 30 31 32 31 31 32 31 30 29 30 31 31 30 29 29 31 36 42 51 64 72 67 60 59 61 65 68 69 70 73 76 77 80
12 11 10 9 8 8 8 9 9 11 12 12 12 12 12 13 14 15 16 18 20 22 23 24 25 25 26 27 27 28 29 30 31 31 30 31 31 31 32 32 31 32 33 32 30 30 32 37 45 58 70 70 62 60 61 64 66 66 67 69 71 71 74
13 12 11 10 10 9 9 9 8 8 8 10 11 11 11 12 13 14 14 16 17 19 20 22 23 24 24 25 26 27 28 29 30 31 30 30 31 32 33 33 33 33 34 33 33 32 32 33 37 47 62 70 67 62 61 62 64 65 65 66 67 68 70
15 14 12 10 9 9 9 9 8 8 7 5 5 7 8 10 11 11 12 13 14 15 16 18 20 21 23 23 24 25 27 28 29 30 31 30 30 32 33 34 34 35 35 35 35 35 34 33 33 37 48 61 68 68 66 64 63 64 66 67 68 69 70
15 13 11 9 8 7 8 7 7 7 7 6 5 3 2 2 2 3 4 4 5 6 8 10 13 15 17 18 19 20 22 24 26 28 29 29 29 31 33 34 34 35 36 36 37 37 36 35 35 35 37 44 54 62 67 69 69 67 66 66 68 70 72
15 12 10 8 8 8 8 7 6 6 6 6 6 5 4 4 3 2 2 2 3 4 5 7 8 9 10 12 14 15 16 18 19 21 23 25 26 28 32 33 34 35 36 37 37 38 38 38 38 39 39 40 43 48 54 61 66 69 70 69 69 70 71
16 14 10 8 7 8 8 8 7 7 6 5 4 3 3 2 1 0 2 3 5 6 8 9 9 10 10 10 11 12 13 14 15 17 18 19 20 22 25 27 29 32 34 36 38 39 41 41 41 41 43 44 44 44 46 49 53 58 63 67 69 71 72
17 15 12 8 7 7 7 8 8 7 5 4 4 3 2 1 1 1 1 2 3 4 6 7 9 10 12 12 13 13 14 14 15 16 17 18 19 20 21 22 24 26 28 32 35 38 41 42 44 45 45 46 46 47 47 48 49 50 52 55 60 64 67
18 17 14 11 8 7 7 7 8 7 5 4 3 2 1 1 2 2 2 2 3 4 5 7 8 9 10 11 12 14 15 16 17 17 18 19 20 21 22 22 23 24 25 27 29 32 35 38 41 44 46 48 49 49 50 51 51 51 51 51 52 54 57
19 18 17 14 11 8 7 7 6 6 5 4 2 1 2 2 2 2 3 3 4 5 6 7 8 9 9 10 10 11 12 14 15 17 18 19 20 22 23 24 24 25 26 27 28 29 31 33 36 38 41 43 45 47 49 51 52 52 52 53 53 54 54
20 19 17 15 13 11 9 8 7 6 5 4 3 3 3 3 2 3 3 4 4 5 5 6 6 7 8 9 10 10 10 10 11 13 14 15 17 18 20 22 24 25 26 27 29 30 31 32 33 35 36 37 39 42 44 46 48 50 51 52 53 54 54
20 20 18 15 13 11 10 8 7 6 5 4 3 3 2 1 2 2 3 4 4 4 5 7 7 7 6 7 7 7 7 8 8 9 9 10 11 12 13 16 19 22 25 27 29 30 31 32 34 35 35 37 38 39 39 40 42 44 46 48 50 52 53
19 19 19 17 14 11 9 8 7 6 4 3 2 1 1 2 3 3 4 4 4 5 5 6 7 7 7 6 6 6 6 7 7 7 7 8 9 10 10 10 12 15 19 23 27 29 31 32 34 35 36 37 37 38 38 39 39 40 42 43 45 46 48
18 18 18 17 15 12 9 8 7 7 7 6 6 6 6 6 5 5 5 5 5 5 5 6 6 6 6 5 5 4 5 5 6 6 7 7 8 9 9 9 8 9 11 15 21 25 27 29 31 32 34 36 36 37 37 38 39 40 41 42 42 43 43
19 19 18 16 14 12 10 9 9 8 8 9 10 10 10 9 8 6 5 5 5 5 5 5 5 6 6 5 4 3 3 3 4 4 4 5 5 6 8 8 8 7 7 7 11 16 21 25 27 29 31 32 34 34 35 36 38 39 41 42 42 41 41
23 22 19 15 12 11 10 9 9 9 9 9 9 9 9 8 7 7 7 6 6 5 5 5 5 6 7 6 5 3 2 2 2 2 2 2 2 3 4 5 6 6 6 4 3 6 11 17 21 23 25 26 26 27 28 29 31 33 36 39 40 40 39
25 22 18 14 11 10 10 9 9 10 9 9 9 8 7 6 5 6 7 6 6 5 5 5 5 6 6 7 6 5 3 2 1 0 0 0 0 0 1 1 1 2 3 2 1 1 2 5 9 13 16 18 19 19 19 20 20 21 25 29 33 35 36
Wind_Direction
251 251 254 255 253 253 255 256 258 260 259 257 253 250 249 247 245 243 241 238 237 235 235 235 234 233 232 231 230 229 228 227 227 226 226 227 228 230 231 231 231 231 230 228 226 226 227 230 232 234 234 234 234 237 239 236 234 235 236 236 236 235 236
249 249 251 251 249 251 253 255 257 259 259 256 252 249 246 245 244 242 239 236 234 234 233 233 234 234 233 233 232 231 229 228 228 227 227 226 227 228 229 230 230 230 230 229 228 226 226 227 228 228 228 228 230 234 238 238 235 234 234 235 236 236 236
246 246 246 246 247 250 253 255 257 258 258 256 252 247 243 241 241 239 237 234 232 231 231 231 232 233 234 234 233 233 231 229 229 229 228 227 227 227 228 229 230 229 229 229 229 228 227 227 228 228 229 230 233 235 238 239 238 236 234 234 236 237 236
241 242 242 243 246 249 251 252 252 254 255 255 251 245 240 237 237 236 235 233 230 230 230 230 230 232 233 235 234 234 233 232 230 230 230 230 228 228 227 228 229 229 229 229 229 229 229 229 229 230 230 232 235 237 239 240 239 238 237 236 237 238 239
237 238 240 242 243 243 244 245 248 250 252 253 249 244 239 235 234 233 233 232 230 229 229 229 230 231 233 234 235 235 234 234 232 231 231 231 231 230 229 228 229 229 229 229 229 228 228 229 231 232 232 234 236 238 239 240 240 239 239 239 239 240 241
234 236 237 238 237 237 240 244 248 251 253 253 249 243 239 236 232 231 230 229 229 229 230 230 231 232 233 234 234 234 234 233 233 232 232 232 233 232 231 230 229 229 230 229 230 229 227 227 229 231 232 234 236 238 239 240 239 240 240 240 240 240 241
230 233 233 234 235 238 243 248 252 254 255 254 250 243 239 235 231 229 228 226 227 229 230 231 232 233 233 234 235 234 234 233 232 232 232 232 233 233 233 232 231 230 230 230 230 230 229 227 227 228 230 231 233 235 237 238 238 239 239 240 239 239 239
225 229 230 233 237 242 247 251 253 255 256 255 251 244 238 235 232 229 227 225 225 228 230 230 232 234 235 236 237 237 235 234 233 232 232 232 232 233 234 234 233 232 231 231 230 230 230 229 228 228 229 230 231 232 233 235 236 237 238 239 239 239 238
223 226 229 232 237 241 245 249 252 254 255 255 253 246 238 234 232 231 229 228 228 229 231 231 232 234 236 237 238 239 238 236 234 232 231 231 232 233 233 234 234 234 233 232 232 231 230 230 229 229 229 230 231 232 232 233 234 235 236 236 238 238 239
222 226 229 231 235 239 243 248 251 254 256 256 254 249 240 234 231 231 231 232 232 232 233 234 235 235 236 237 237 238 238 237 235 234 232 231 231 232 233 233 234 235 235 234 233 233 232 231 230 230 230 231 232 233 233 233 234 234 234 234 235 236 237
224 227 230 232 235 239 244 249 252 254 256 256 255 252 245 237 232 229 231 234 235 235 234 235 236 236 236 236 236 236 236 236 235 234 234 234 234 234 234 234 234 234 235 235 235 235 234 233 232 232 231 231 232 233 234 235 235 235 235 235 235 235 236
226 229 232 235 237 241 246 252 254 255 255 254 254 253 249 242 235 230 230 233 234 236 236 236 236 236 236 235 235 235 235 235 234 233 234 236 237 238 238 237 235 235 235 235 236 236 236 235 234 233 233 232 232 233 234 235 236 237 237 237 237 236 236
227 231 234 237 242 246 250 255 258 258 257 254 253 253 252 248 241 235 231 231 233 234 235 236 236 236 235 234 234 234 234 234 234 235 236 238 239 240 242 241 239 237 236 235 235 235 236 236 235 235 234 233 233 233 234 235 236 237 238 238 239 239 238
230 233 237 240 245 250 254 256 258 258 257 254 252 251 251 250 247 242 236 233 232 231 231 233 235 235 235 234 233 233 233 234 234 235 238 240 241 242 244 244 242 240 239 237 236 235 235 235 235 235 235 234 233 233 234 235 235 236 237 238 239 239 240
247 247 249 251 254 257 259 258 257 255 253 251 250 249 250 249 248 246 241 237 234 231 230 230 231 233 234 234 234 234 234 234 235 236 238 240 241 243 245 246 245 243 241 239 238 237 235 234 233 233 234 234 233 232 233 234 235 235 235 236 238 238 239
270 268 267 266 264 263 261 259 256 254 251 250 250 250 249 249 249 247 245 241 237 234 232 231 231 231 233 235 235 235 235 236 236 236 237 239 241 242 246 249 249 247 243 240 238 237 235 234 231 229 232 235 235 233 232 232 234 235 234 235 236 237 238
290 283 279 276 273 270 266 261 257 254 252 251 251 251 251 249 248 246 244 242 239 236 234 233 232 232 233 234 236 236 236 237 237 237 237 238 240 242 245 250 252 251 248 243 240 237 234 232 229 226 228 235 238 235 233 232 233 235 235 234 234 235 237
320 305 294 286 280 276 272 267 262 258 255 252 250 250 249 248 246 244 243 241 237 233 232 231 230 231 231 233 236 237 238 238 239 239 239 238 240 241 244 248 251 253 252 247 243 240 235 232 228 224 225 231 236 236 234 232 232 233 235 235 234 233 234
339 328 318 309 298 288 281 274 268 263 259 257 254 251 249 247 245 242 240 237 232 227 226 227 227 228 229 231 234 237 239 240 240 240 240 239 239 239 241 245 247 250 252 249 246 242 238 235 229 223 223 228 232 232 231 229 228 229 232 234 234 232 232
356 348 339 331 322 311 301 290 280 271 264 260 257 254 251 248 245 241 238 235 232 229 229 230 230 231 231 232 234 236 238 240 241 240 239 239 239 238 239 241 242 245 248 249 246 243 240 237 232 224 222 225 229 230 229 228 228 230 233 235 235 234 232
11 9 6 0 353 344 333 320 303 285 271 263 257 256 255 251 246 242 238 236 236 236 238 239 240 240 240 240 241 241 242 243 244 243 240 239 240 239 238 238 239 242 245 247 246 244 240 238 235 227 223 224 227 229 229 230 231 233 235 236 235 235 234
1 360 359 357 353 348 346 344 338 322 293 272 261 258 258 256 253 249 245 243 242 244 246 249 250 251 251 250 250 249 249 249 249 249 246 243 241 241 240 239 238 239 242 244 245 245 243 240 237 231 226 225 227 229 229 230 231 232 233 232 232 231 231
0 357 354 349 342 337 338 340 343 349 351 332 286 264 261 262 261 259 256 253 251 250 251 252 254 254 254 254 252 251 251 251 251 251 251 248 246 245 244 242 240 240 240 241 242 243 244 242 240 236 231 229 229 230 231 230 230 230 230 230 229 228 228
1 358 355 351 344 340 345 351 351 352 1 11 18 18 356 314 286 275 269 262 255 250 246 245 246 247 248 249 248 247 247 248 248 249 250 249 247 247 246 245 243 242 241 241 241 242 242 242 240 238 236 233 232 233 233 233 232 231 230 229 229 229 228
358 353 350 350 353 358 6 13 13 7 9 19 29 37 42 46 44 28 353 311 291 278 268 263 257 253 249 247 246 245 244 244 244 245 247 247 244 243 245 245 244 243 242 242 242 242 242 242 241 239 238 236 235 234 234 234 234 234 233 231 231 230 230
5 360 353 346 350 2 9 13 19 22 23 27 32 34 32 39 49 261 255 262 268 270 270 271 270 269 266 260 254 250 246 243 242 242 244 246 244 243 244 245 244 243 242 241 241 241 241 241 241 240 239 238 237 236 235 235 235 235 235 234 234 233 233
12 10 6 356 349 355 358 359 9 18 18 14 16 17 18 46 125 174 211 252 273 282 285 281 276 271 269 268 266 264 258 252 247 244 243 244 244 243 242 242 242 241 240 239 239 239 239 239 239 239 239 239 238 238 237 237 236 235 235 235 235 235 236
21 20 22 20 11 5 359 355 359 5 4 3 10 23 71 108 115 109 87 41 1 338 323 312 301 289 278 271 269 268 267 264 259 254 249 246 245 244 243 241 241 241 239 240 240 239 239 239 238 238 238 238 238 238 238 238 238 236 235 235 235 235 235
26 24 26 30 29 23 15 8 4 360 359 5 20 60 83 81 67 49 29 8 352 341 332 322 311 300 291 284 278 272 270 269 267 263 259 255 252 250 248 246 245 243 241 240 239 238 238 238 238 239 239 240 240 240 240 240 240 239 238 238 237 236 236
22 21 20 24 29 31 30 27 23 17 17 24 35 51 60 52 27 3 347 337 331 332 336 337 328 313 297 288 284 281 277 274 270 267 263 260 257 256 254 252 250 248 247 245 242 240 238 238 238 239 239 239 239 239 240 240 240 240 240 240 240 239 238
18 15 13 13 17 22 26 30 33 33 36 41 48 57 61 32 341 339 344 343 337 341 350 352 345 335 319 299 288 285 285 282 278 274 269 265 264 265 264 261 256 252 250 249 248 246 244 242 240 239 238 237 238 239 240 240 240 239 240 240 240 240 240
10 8 5 2 1 2 5 8 12 16 21 26 21 351 311 301 315 341 360 2 353 348 354 355 347 341 336 323 307 300 301 300 295 287 277 271 269 269 273 275 270 260 253 249 247 247 246 245 243 241 240 239 239 240 240 240 240 239 238 239 239 239 239
358 357 354 351 348 344 341 340 340 340 340 337 332 327 325 326 336 346 352 354 348 343 346 350 348 347 349 345 333 324 319 315 310 299 285 277 274 272 275 281 287 281 266 254 247 244 242 242 242 241 240 240 239 240 240 240 240 240 239 238 237 237 237
344 344 342 337 334 331 324 318 316 318 321 324 328 333 337 340 341 336 329 332 335 333 334 338 343 350 357 359 355 349 338 326 319 313 301 290 283 278 278 282 288 295 295 279 257 245 240 238 237 237 237 237 238 238 240 240 241 240 238 236 235 234 235
335 335 332 326 322 320 313 303 298 301 308 315 322 333 344 350 343 323 313 317 321 316 314 321 331 345 354 359 1 8 15 4 338 326 322 315 300 288 283 281 282 286 298 312 299 257 242 237 234 232 232 232 233 236 239 240 239 236 233 231 230 230 231
330 329 327 322 315 312 308 296 282 281 290 302 310 321 337 351 339 316 308 309 309 304 302 307 317 328 339 348 356 3 14 31 32 5 277 187 218 290 295 275 258 263 268 277 324 93 173 209 219 222 224 226 228 232 235 235 232 228 225 223 224 225 227
Height
5269 5270 5271 5273 5274 5275 5276 5277 5278 5279 5281 5282 5284 5285 5287 5288 5290 5293 5296 5298 5301 5305 5308 5312 5316 5322 5328 5333 5338 5345 5352 5359 5367 5375 5383 5390 5398 5405 5413 5421 5428 5438 5450 5458 5463 5470 5477 5482 5486 5489 5493 5498 5501 5504 5508 5513 5518 5522 5526 5531 5536 5540 5544
5265 5266 5267 5269 5270 5271 5273 5274 5275 5276 5277 5278 5280 5282 5283 5285 5287 5289 5292 5294 5297 5300 5304 5307 5311 5316 5320 5324 5329 5335 5342 5349 5357 5364 5371 5378 5385 5393 5401 5409 5416 5426 5436 5444 5450 5458 5465 5470 5475 5479 5484 5488 5493 5497 5500 5503 5508 5513 5517 5522 5527 5531 5536
5261 5262 5264 5265 5267 5268 5270 5272 5272 5273 5273 5275 5276 5278 5280 5282 5284 5286 5288 5291 5294 5297 5300 5303 5306 5310 5314 5317 5322 5328 5334 5341 5347 5353 5359 5366 5374 5381 5390 5397 5403 5412 5422 5430 5437 5445 5452 5457 5463 5468 5473 5477 5482 5486 5488 5491 5496 5502 5507 5513 5518 5523 5528
5257 5258 5260 5262 5264 5266 5268 5268 5269 5269 5270 5271 5273 5274 5276 5278 5280 5282 5285 5287 5290 5293 5296 5299 5302 5306 5309 5311 5316 5321 5326 5332 5339 5344 5349 5356 5363 5370 5379 5386 5391 5399 5409 5418 5424 5431 5439 5445 5450 5455 5460 5464 5468 5472 5476 5480 5484 5490 5498 5504 5510 5515 5520
5253 5255 5257 5259 5261 5263 5264 5264 5265 5265 5266 5268 5269 5271 5273 5275 5277 5279 5281 5284 5286 5289 5292 5295 5298 5301 5304 5306 5310 5315 5319 5324 5330 5336 5341 5347 5353 5360 5368 5375 5380 5387 5396 5404 5410 5418 5426 5433 5437 5442 5447 5452 5456 5460 5465 5470 5475 5480 5488 5495 5501 5507 5512
5250 5252 5254 5256 5258 5259 5260 5261 5262 5263 5264 5265 5266 5268 5270 5272 5273 5275 5278 5280 5283 5285 5288 5291 5294 5296 5299 5302 5305 5309 5313 5317 5321 5326 5332 5338 5344 5350 5357 5364 5369 5376 5384 5391 5397 5404 5413 5419 5425 5431 5436 5441 5446 5450 5455 5460 5466 5471 5478 5485 5491 5498 5503
5247 5250 5252 5253 5255 5256 5258 5259 5259 5260 5261 5262 5263 5265 5266 5268 5270 5272 5274 5277 5279 5282 5284 5287 5289 5291 5294 5297 5300 5304 5307 5310 5314 5318 5323 5329 5335 5340 5346 5352 5358 5365 5371 5378 5384 5391 5399 5407 5413 5419 5424 5429 5434 5438 5443 5449 5456 5462 5469 5475 5481 5487 5492
5245 5247 5249 5251 5253 5255 5256 5257 5257 5258 5259 5259 5260 5262 5263 5265 5267 5269 5271 5273 5276 5278 5280 5283 5285 5288 5290 5293 5296 5299 5302 5304 5307 5311 5316 5321 5325 5330 5335 5340 5347 5353 5359 5366 5371 5377 5386 5394 5400 5405 5411 5416 5420 5425 5434 5442 5448 5454 5460 5464 5469 5475 5480
5243 5245 5248 5250 5251 5252 5253 5254 5255 5255 5256 5257 5258 5259 5261 5262 5264 5266 5268 5270 5273 5275 5277 5279 5282 5284 5286 5289 5292 5294 5297 5299 5302 5305 5310 5314 5317 5321 5325 5330 5335 5341 5347 5353 5359 5364 5372 5380 5386 5392 5399 5404 5410 5419 5428 5433 5437 5441 5447 5451 5456 5462 5468
5242 5244 5246 5248 5249 5250 5251 5252 5252 5252 5253 5254 5255 5256 5258 5260 5262 5264 5266 5268 5270 5272 5274 5276 5278 5280 5283 5285 5288 5290 5293 5295 5297 5300 5304 5307 5310 5313 5317 5321 5325 5330 5336 5342 5347 5352 5360 5367 5374 5382 5389 5396 5403 5411 5416 5419 5423 5428 5434 5438 5444 5451 5457
5241 5243 5244 5245 5247 5248 5248 5249 5249 5250 5251 5252 5253 5254 5255 5257 5259 5261 5263 5265 5267 5269 5271 5273 5275 5277 5279 5282 5285 5287 5289 5291 5293 5296 5298 5301 5303 5306 5309 5312 5317 5321 5327 5332 5336 5341 5348 5356 5363 5371 5378 5385 5392 5398 5403 5408 5412 5416 5421 5426 5433 5441 5448
5240 5241 5242 5243 5244 5245 5246 5247 5247 5247 5248 5249 5250 5251 5252 5254 5256 5258 5260 5262 5264 5266 5268 5269 5271 5273 5276 5278 5281 5283 5285 5287 5289 5291 5293 5296 5298 5300 5302 5306 5310 5314 5318 5322 5326 5331 5337 5345 5352 5359 5366 5373 5380 5387 5392 5397 5400 5404 5409 5416 5423 5430 5437
5238 5239 5240 5241 5242 5243 5244 5244 5244 5245 5245 5246 5247 5248 5250 5251 5253 5255 5257 5258 5261 5263 5264 5266 5268 5270 5272 5275 5277 5279 5281 5283 5285 5287 5289 5291 5293 5295 5297 5300 5303 5306 5309 5313 5316 5320 5326 5334 5341 5347 5354 5362 5369 5374 5379 5383 5388 5394 5400 5406 5412 5418 5425
5237 5238 5239 5239 5240 5241 5241 5241 5242 5242 5243 5243 5245 5246 5247 5248 5250 5251 5253 5255 5257 5259 5261 5263 5265 5267 5269 5271 5273 5275 5277 5279 5281 5283 5285 5286 5288 5291 5292 5294 5296 5298 5301 5304 5307 5311 5317 5323 5329 5335 5342 5349 5354 5360 5366 5372 5378 5384 5389 5394 5399 5405 5411
5236 5237 5237 5238 5238 5238 5239 5239 5239 5239 5240 5240 5241 5243 5244 5246 5247 5248 5250 5252 5254 5256 5258 5259 5261 5264 5266 5268 5270 5272 5273 5275 5277 5278 5280 5282 5284 5286 5287 5288 5290 5292 5294 5296 5299 5303 5309 5314 5319 5324 5329 5334 5341 5348 5355 5361 5366 5371 5376 5381 5386 5392 5398
5236 5236 5236 5236 5236 5236 5236 5236 5237 5237 5237 5238 5239 5240 5241 5243 5244 5246 5247 5249 5251 5253 5255 5256 5258 5260 5262 5264 5266 5268 5270 5271 5272 5274 5276 5278 5279 5281 5283 5284 5285 5286 5287 5289 5292 5296 5300 5305 5310 5315 5320 5323 5328 5336 5343 5349 5354 5359 5365 5371 5377 5383 5389
5235 5235 5234 5234 5234 5234 5234 5234 5234 5235 5235 5235 5236 5237 5238 5240 5241 5242 5244 5245 5247 5249 5251 5253 5255 5257 5259 5261 5262 5264 5265 5267 5268 5270 5272 5274 5276 5277 5279 5280 5281 5281 5282 5284 5286 5289 5292 5297 5301 5307 5312 5316 5319 5325 5332 5339 5344 5350 5356 5362 5368 5374 5380
5235 5234 5234 5233 5233 5233 5233 5232 5232 5232 5233 5233 5233 5234 5235 5236 5238 5239 5240 5242 5244 5246 5248 5250 5252 5254 5255 5257 5259 5260 5261 5263 5265 5266 5268 5270 5272 5273 5275 5276 5277 5277 5278 5279 5281 5283 5287 5291 5294 5300 5306 5310 5313 5319 5325 5332 5338 5342 5346 5352 5358 5365 5370
5235 5234 5233 5233 5232 5232 5231 5231 5231 5231 5231 5231 5231 5232 5233 5233 5235 5236 5237 5239 5241 5242 5244 5246 5248 5249 5251 5253 5255 5256 5258 5259 5261 5263 5265 5266 5268 5269 5272 5273 5273 5274 5275 5276 5277 5279 5282 5285 5289 5294 5299 5304 5309 5314 5320 5325 5330 5334 5337 5343 5349 5355 5360
5235 5234 5233 5232 5232 5231 5230 5230 5229 5229 5229 5229 5230 5230 5231 5232 5232 5234 5235 5236 5238 5240 5241 5243 5244 5246 5248 5250 5251 5252 5254 5255 5257 5259 5261 5262 5264 5266 5268 5268 5269 5270 5271 5272 5274 5275 5277 5279 5283 5287 5293 5298 5303 5308 5313 5317 5321 5326 5330 5335 5340 5346 5353
5236 5235 5234 5233 5232 5231 5230 5229 5229 5228 5227 5228 5228 5229 5229 5230 5231 5232 5233 5234 5236 5237 5239 5240 5242 5243 5245 5246 5248 5249 5251 5252 5253 5255 5257 5259 5260 5261 5262 5263 5265 5266 5267 5269 5270 5272 5273 5275 5278 5282 5287 5292 5298 5302 5306 5310 5315 5319 5322 5327 5333 5339 5344
5237 5236 5235 5233 5232 5231 5230 5229 5229 5228 5227 5226 5227 5228 5228 5229 5230 5231 5232 5233 5234 5235 5237 5238 5239 5241 5242 5243 5245 5246 5247 5248 5249 5251 5252 5255 5256 5256 5257 5259 5261 5262 5264 5266 5267 5269 5270 5272 5275 5278 5282 5287 5292 5296 5300 5304 5308 5312 5315 5320 5325 5330 5334
5238 5236 5235 5234 5233 5232 5231 5230 5229 5228 5227 5227 5226 5227 5227 5228 5229 5230 5231 5232 5233 5234 5235 5236 5237 5238 5239 5240 5241 5242 5243 5244 5245 5246 5247 5249 5251 5252 5253 5254 5256 5258 5260 5262 5264 5265 5267 5270 5272 5275 5278 5282 5286 5290 5293 5297 5301 5304 5308 5312 5317 5321 5325
5239 5237 5236 5235 5233 5232 5232 5231 5230 5229 5228 5228 5228 5228 5228 5229 5229 5230 5231 5231 5232 5233 5234 5235 5235 5236 5237 5237 5238 5239 5239 5240 5241 5242 5242 5244 5246 5247 5248 5249 5252 5254 5255 5257 5260 5262 5264 5267 5269 5272 5274 5277 5280 5283 5286 5289 5293 5297 5301 5305 5310 5314 5317
5239 5238 5237 5235 5234 5233 5233 5232 5231 5231 5230 5230 5230 5229 5230 5230 5230 5230 5231 5231 5232 5232 5233 5234 5234 5234 5235 5235 5236 5236 5237 5238 5238 5239 5239 5240 5242 5243 5243 5245 5247 5249 5251 5253 5255 5258 5260 5262 5265 5267 5270 5272 5274 5276 5279 5282 5286 5290 5294 5298 5303 5306 5310
5239 5238 5237 5236 5235 5235 5234 5233 5233 5232 5232 5231 5231 5231 5231 5231 5231 5231 5232 5232 5232 5232 5233 5233 5233 5233 5233 5234 5234 5234 5235 5236 5236 5237 5237 5238 5239 5240 5240 5242 5243 5245 5247 5249 5251 5252 5255 5257 5259 5262 5264 5266 5268 5271 5274 5276 5279 5283 5287 5291 5295 5298 5302
5240 5239 5237 5237 5236 5235 5235 5234 5234 5234 5233 5233 5232 5232 5232 5232 5232 5232 5232 5232 5232 5232 5232 5232 5232 5232 5232 5232 5232 5232 5233 5233 5234 5234 5235 5235 5236 5237 5238 5239 5240 5241 5243 5244 5245 5247 5249 5251 5253 5255 5257 5260 5262 5265 5268 5270 5273 5276 5280 5284 5287 5290 5294
5242 5240 5239 5238 5237 5236 5236 5235 5235 5234 5234 5233 5233 5233 5232 5232 5232 5232 5233 5232 5232 5232 5232 5232 5231 5231 5231 5231 5231 5231 5231 5231 5232 5232 5232 5233 5233 5234 5235 5236 5236 5238 5239 5240 5241 5243 5244 5246 5248 5249 5251 5254 5256 5259 5261 5264 5266 5270 5274 5277 5280 5283 5286
5244 5243 5241 5240 5238 5237 5237 5236 5235 5235 5234 5234 5233 5233 5233 5233 5233 5233 5233 5233 5232 5232 5232 5231 5231 5230 5229 5229 5229 5229 5229 5229 5229 5229 5230 5230 5231 5231 5232 5232 5233 5234 5235 5237 5238 5239 5240 5242 5243 5245 5247 5249 5251 5253 5255 5258 5260 5264 5267 5270 5273 5276 5279
5246 5245 5243 5242 5240 5239 5238 5237 5236 5235 5235 5235 5234 5234 5234 5234 5234 5234 5234 5233 5232 5232 5232 5231 5231 5230 5229 5228 5227 5227 5227 5227 5227 5227 5227 5228 5228 5228 5229 5229 5230 5231 5232 5233 5234 5235 5236 5238 5239 5241 5242 5244 5246 5247 5249 5252 5254 5257 5260 5263 5266 5269 5272
5248 5246 5245 5244 5242 5241 5240 5238 5237 5237 5236 5236 5235 5235 5235 5235 5234 5234 5234 5233 5233 5232 5231 5231 5230 5229 5229 5228 5227 5226 5226 5226 5225 5225 5225 5226 5226 5226 5226 5226 5227 5227 5228 5228 5229 5231 5232 5233 5235 5236 5238 5239 5241 5242 5244 5246 5249 5251 5254 5256 5259 5262 5265
5249 5248 5246 5245 5243 5242 5241 5240 5239 5238 5237 5237 5236 5236 5235 5235 5234 5234 5234 5233 5233 5232 5231 5231 5230 5229 5228 5227 5226 5226 5225 5225 5224 5224 5224 5224 5224 5224 5224 5224 5224 5223 5224 5224 5225 5226 5227 5228 5230 5231 5233 5234 5236 5238 5239 5241 5243 5246 5248 5250 5252 5255 5258
5251 5249 5247 5245 5244 5243 5242 5241 5240 5239 5238 5238 5237 5236 5236 5235 5234 5234 5233 5233 5232 5232 5231 5231 5230 5229 5228 5227 5226 5225 5225 5224 5224 5223 5223 5223 5223 5223 5223 5222 5222 5221 5221 5220 5220 5221 5222 5223 5225 5226 5228 5229 5231 5233 5234 5236 5238 5239 5242 5244 5247 5249 5252
5250 5249 5247 5245 5244 5242 5241 5241 5240 5239 5238 5238 5237 5236 5236 5235 5235 5234 5233 5232 5232 5231 5231 5231 5230 5229 5228 5227 5226 5225 5224 5224 5224 5223 5223 5222 5222 5221 5221 5221 5220 5220 5219 5218 5217 5218 5218 5219 5221 5222 5223 5225 5226 5228 5229 5230 5231 5233 5235 5238 5241 5244 5247
5249 5247 5245 5244 5242 5241 5240 5240 5239 5238 5238 5237 5237 5236 5236 5235 5234 5233 5233 5232 5232 5231 5231 5230 5230 5229 5228 5227 5226 5225 5225 5224 5223 5223 5223 5222 5221 5221 5220 5220 5219 5219 5218 5218 5217 5216 5217 5217 5218 5219 5220 5222 5223 5224 5225 5226 5226 5227 5229 5232 5235 5239 5242
5247 5245 5243 5242 5240 5240 5239 5238 5238 5237 5237 5236 5236 5235 5235 5234 5233 5233 5232 5232 5231 5231 5230 5230 5229 5229 5228 5227 5226 5226 5225 5224 5223 5223 5222 5222 5221 5221 5220 5220 5219 5219 5218 5218 5218 5217 5217 5217 5217 5218 5219 5220 5221 5222 5223 5223 5223 5224 5226 5228 5231 5235 5238